Regional Weather Roundup
Issued by NWS

Home | Current Version | Previous Version | Text Only | Print | Product List | Glossary On
Versions: 1 2 3 4 5 6 7 8 9 10 11 12 13 14 15 16 17 18 19 20 21 22 23 24 25 26 27 28 29 30 31 32 33 34 35 36 37 38 39 40 41 42 43 44 45 46 47 48 49 50
000
ASUS43 KBIS 230910
RWRND

NORTH DAKOTA REGIONAL WEATHER ROUNDUP
NATIONAL WEATHER SERVICE BISMARCK ND
400 AM CDT WED AUG 23 2017

NOTE: "FAIR" INDICATES FEW OR NO CLOUDS BELOW 12,000 FEET WITH NO
SIGNIFICANT WEATHER AND/OR OBSTRUCTIONS TO VISIBILITY.


NDZ001>003-009>011-017-231000-
NORTHWEST NORTH DAKOTA

CITY           SKY/WX    TMP DP  RH WIND       PRES   REMARKS
WILLISTON      CLEAR     58  42  55 SW6       30.06S
MINOT          CLOUDY    56  45  66 E3        30.05F
MINOT AFB      CLOUDY    54  45  71 S5        30.04F
$$

NDZ018>021-031>035-040>046-231000-
SOUTHWEST NORTH DAKOTA

CITY           SKY/WX    TMP DP  RH WIND       PRES   REMARKS
BISMARCK       CLEAR     50  48  93 CALM      30.11F
DICKINSON      CLEAR     52  41  66 S9        30.09F
GARRISON         N/A     54  46  74 SW3       30.08F
HETTINGER ARPT CLEAR     55  43  63 E10       30.13S
$$

NDZ004>008-012>016-024-026-027-054-231000-
NORTHEAST NORTH DAKOTA

CITY           SKY/WX    TMP DP  RH WIND       PRES   REMARKS
GRAND FORKS    CLEAR     47  45  93 W3        30.09R
GRND FRKS AFB  CLEAR     46  44  95 CALM      30.09S
DEVILS LAKE    MOCLDY    54  49  83 SE6       30.10F
$$

NDZ022-023-025-028>030-036>039-047>053-231000-
SOUTHEAST NORTH DAKOTA

CITY           SKY/WX    TMP DP  RH WIND       PRES   REMARKS
FARGO          CLEAR     50  46  86 W3        30.10S
JAMESTOWN      CLEAR     48  46  93 CALM      30.10F
$$





USA.gov is the U.S. government's official web portal to all federal, state and local government web resources and services.